Change the Weather History Date:

Thursday, December 5, 2013

  Actual Average Record
Temperature  
Mean Temperature 62 °F -  
Max Temperature 73 °F 65 °F 84 °F (2012)
Min Temperature 50 °F 47 °F 41 °F (1996)
Degree Days  
Heating Degree Days 4    
Growing Degree Days 12 (Base 50)    
Moisture  
Dew Point 57 °F    
Average Humidity 87    
Maximum Humidity 100    
Minimum Humidity 65    
Precipitation  
Precipitation 0.00 in - - ()
Sea Level Pressure  
Sea Level Pressure 29.76 in    
Wind  
Wind Speed 6 mph ()    
Max Wind Speed 15 mph    
Max Gust Speed -    
Visibility 5.8 miles    
Events      
Averages and records for this station are not official NWS values.
T = Trace of Precipitation, MM = Missing Value Source: Averaged Metar Reports

Daily Weather History Graph

Daily Weather History Graph

Search for Another Location

Airport or City:

Trip Planner

Search our weather history database for the weather conditions in past years. The results will help you decide how hot, cold, wet, or windy it might be!

Date:

Astronomy

Dec. 05, 2013 Rise Set
Actual Time 5:43 AM NZDT 8:57 PM NZDT
Civil Twilight 5:08 AM NZDT 9:33 PM NZDT
Nautical Twilight 4:22 AM NZDT 10:18 PM NZDT
Astronomical Twilight 3:27 AM NZDT 11:14 PM NZDT
Moon 7:52 AM NZDT (12/5) 10:51 PM NZDT (12/5)
Length of Visible Light 16h 24m
Length of Day
15h 14m
Waxing Crescent, 6% of the Moon is Illuminated
Dec 5
Waxing Crescent
Dec 10
First Quarter
Dec 17
Full
Dec 26
Last Quarter
Jan 2
New

Hourly Weather History & Observations

Time (NZDT) Temp. Dew Point Humidity Pressure Visibility Wind Dir Wind Speed Gust Speed Precip Events Conditions
12:00 AM 53.6 °F 53.6 °F 100% 29.83 in 3.1 mi Calm Calm - N/A   Mist
12:30 AM 53.6 °F 51.8 °F 94% 29.83 in 3.7 mi Calm Calm - N/A   Unknown
1:30 AM 50.0 °F 50.0 °F 100% 29.80 in - SW 4.6 mph - N/A   Mist
2:00 AM 53.6 °F 53.6 °F 100% 29.80 in 3.7 mi WSW 4.6 mph - N/A   Unknown
2:30 AM 53.6 °F 53.6 °F 100% 29.80 in 5.0 mi SW 5.8 mph - N/A   Unknown
3:00 AM 53.6 °F 53.6 °F 100% 29.80 in 5.6 mi WSW 5.8 mph - N/A   Unknown
3:30 AM 55.4 °F 55.4 °F 100% 29.80 in 5.0 mi WSW 3.5 mph - N/A   Mostly Cloudy
4:00 AM 55.4 °F 55.4 °F 100% 29.80 in - WSW 4.6 mph - N/A   Overcast
4:30 AM 57.2 °F 57.2 °F 100% 29.80 in 3.1 mi WSW 6.9 mph - N/A   Overcast
5:00 AM 57.2 °F 57.2 °F 100% 29.80 in 3.7 mi SW 8.1 mph - N/A   Overcast
5:30 AM 57.2 °F 57.2 °F 100% 29.83 in 5.0 mi WSW 9.2 mph - N/A   Overcast
6:00 AM 57.2 °F 57.2 °F 100% 29.83 in 6.2 mi WSW 9.2 mph - N/A   Overcast
6:30 AM 57.2 °F 57.2 °F 100% 29.83 in 6.2 mi WSW 6.9 mph - N/A   Overcast
7:00 AM 59.0 °F 57.2 °F 94% 29.83 in 6.2 mi WSW 6.9 mph - N/A   Overcast
7:30 AM 59.0 °F 57.2 °F 94% 29.83 in 6.2 mi WSW 10.4 mph - N/A   Overcast
8:00 AM 59.0 °F 55.4 °F 88% 29.83 in 6.2 mi WSW 8.1 mph - N/A   Overcast
8:30 AM 59.0 °F 57.2 °F 94% 29.83 in 6.2 mi WSW 10.4 mph - N/A   Overcast
9:00 AM 60.8 °F 57.2 °F 88% 29.83 in 6.2 mi SW 10.4 mph - N/A   Overcast
9:30 AM 60.8 °F 57.2 °F 88% 29.83 in 6.2 mi WSW 9.2 mph - N/A   Overcast
10:00 AM 60.8 °F 57.2 °F 88% 29.83 in 6.2 mi SW 8.1 mph - N/A   Overcast
10:30 AM 62.6 °F 57.2 °F 82% 29.80 in 6.2 mi SW 6.9 mph - N/A   Overcast
11:00 AM 62.6 °F 57.2 °F 82% 29.80 in 6.2 mi SSW 8.1 mph - N/A   Overcast
11:30 AM 66.2 °F 57.2 °F 73% 29.80 in 6.2 mi SSW 8.1 mph - N/A   Mostly Cloudy
12:00 PM 66.2 °F 57.2 °F 73% 29.80 in 6.2 mi WSW 6.9 mph - N/A   Scattered Clouds
1:00 PM 69.8 °F 60.8 °F 73% 29.77 in 6.2 mi SSW 4.6 mph - N/A   Unknown
1:30 PM 73.4 °F 60.8 °F 65% 29.77 in 6.2 mi East 11.5 mph - N/A   Partly Cloudy
2:00 PM 71.6 °F 60.8 °F 69% 29.74 in 6.2 mi East 12.7 mph - N/A   Unknown
2:30 PM 69.8 °F 59.0 °F 68% 29.74 in 6.2 mi East 15.0 mph - N/A   Unknown
3:00 PM 69.8 °F 59.0 °F 68% 29.74 in 6.2 mi East 13.8 mph - N/A   Partly Cloudy
3:30 PM 68.0 °F 59.0 °F 73% 29.74 in 6.2 mi East 11.5 mph - N/A   Unknown
4:00 PM 68.0 °F 59.0 °F 73% 29.71 in 6.2 mi ENE 11.5 mph - N/A   Unknown
4:30 PM 68.0 °F 59.0 °F 73% 29.71 in 6.2 mi ENE 12.7 mph - N/A   Partly Cloudy
5:00 PM 68.0 °F 59.0 °F 73% 29.71 in 6.2 mi NE 11.5 mph - N/A   Unknown
5:30 PM 64.4 °F 57.2 °F 77% 29.68 in 6.2 mi ENE 13.8 mph - N/A   Unknown
6:00 PM 64.4 °F 57.2 °F 77% 29.68 in 6.2 mi ENE 11.5 mph - N/A   Unknown
6:30 PM 64.4 °F 57.2 °F 77% 29.68 in 6.2 mi ENE 11.5 mph - N/A   Unknown
7:00 PM 62.6 °F 57.2 °F 82% 29.68 in 6.2 mi ENE 9.2 mph - N/A   Unknown
7:30 PM 60.8 °F 57.2 °F 88% 29.68 in 6.2 mi NE 9.2 mph - N/A   Mostly Cloudy
8:00 PM 60.8 °F 57.2 °F 88% 29.68 in 6.2 mi NE 6.9 mph - N/A   Mostly Cloudy
8:30 PM 60.8 °F 59.0 °F 94% 29.68 in 6.2 mi NE 6.9 mph - N/A   Mostly Cloudy
9:00 PM 60.8 °F 59.0 °F 94% 29.68 in 6.2 mi NE 6.9 mph - N/A   Overcast
9:30 PM 60.8 °F 59.0 °F 94% 29.65 in 6.2 mi ENE 8.1 mph - N/A   Overcast
10:00 PM 59.0 °F 57.2 °F 94% 29.68 in 6.2 mi ENE 6.9 mph - N/A   Overcast
10:30 PM 59.0 °F 57.2 °F 94% 29.68 in 6.2 mi ENE 8.1 mph - N/A   Overcast
11:00 PM 59.0 °F 57.2 °F 94% 29.68 in 6.2 mi ENE 6.9 mph - N/A   Overcast
11:30 PM 59.0 °F 57.2 °F 94% 29.68 in 6.2 mi ENE 4.6 mph - N/A   Overcast